LFRZLFRD

Guest
Details From LFRZ - Saint Nazaire Montoir
To LFRD - Dinard Pleurtuit-St Malo
Flight Number -
Tags generated
Created
Modified
Stats Distance 77 nm / 142 km
Max Altitude 0 ft / 0 m
Waypoints 2
Social Downloads 1
Likes 0
Share VATSIM

Download

Looking for another format? Having issues loading an existing format? Contact us
Advertisement - Login to hide

Notes

Basic altitude profile: - Ascent Rate: 2500ft/min - Ascent Speed: 250kts - Cruise Altitude: 35000ft - Cruise Speed: 420kts - Descent Rate: 1500ft/min - Descent Speed: 250kts Options: - Use NATs: no - Use PACOTS: no - Use low airways: no - Use high airways: no

Route

LFRZ LFRD

ID Type Via Altitude Latitude Longitude Leg Dist Tot Dist Heading (true) Name
O LFRZ APT - 0 ft / 0 m 47.31219˚ -2.14918˚ - 0 nm - Saint Nazaire Montoir
O LFRD APT - 0 ft / 0 m 48.58798˚ -2.07992˚ 76 nm 76 nm 2° / 2° Dinard Pleurtuit-St Malo

Altitude Profile

Advertisement - Login to hide

LFRZ

Details ICAO LFRZ (SNR)
Name Saint Nazaire Montoir
Region France
Timezone Europe/Paris (UTC+2.0)
Stats Elevation 13 ft / 4 m (AMSL)
Location 47.312188° -2.149179°
Runways 1
Magnetic Variation 0.635° W

METAR

LFRZ 271800Z AUTO 25005KT 210V330 9999 BKN021 BKN026 20/15 Q1015 NOSIG

Decode

TAF

TAF LFRZ 271700Z 2718/2818 32007KT 9999 SCT030 TEMPO 2802/2807 3000 BR BKN003 PROB30 TEMPO 2814/2818 VRB15G30KT 3000 TSRA BKN025CB

Decode

Departure Runways

ID Width Length Bearing (true) Bearing (mag) Surface Threshold Offset Overrun Length
08 148 ft / 45 m 7,872 ft / 2,400 m 73.42° 74.06° Asphalt 500 ft / 152 m 0 ft / 0 m
26 148 ft / 45 m 7,872 ft / 2,400 m 253.44° 254.08° Asphalt 500 ft / 152 m 0 ft / 0 m

LFRD

Details ICAO LFRD (DNR)
Name Dinard Pleurtuit-St Malo
Region France
Timezone Europe/Paris (UTC+2.0)
Stats Elevation 216 ft / 66 m (AMSL)
Location 48.587983° -2.079916°
Runways 2
Magnetic Variation 0.736° W

METAR

LFRD 271800Z AUTO 25004KT 9999 FEW038 23/15 Q1014 TEMPO SHRA BKN030TCU

Decode

TAF

TAF LFRD 271700Z 2718/2818 20005KT 9999 SCT030 PROB30 TEMPO 2718/2720 5000 SHRA BKN030TCU TEMPO 2802/2808 3000 BR BKN005 BECMG 2810/2812 34010KT TEMPO 2810/2818 4000 SHRA BKN030TCU PROB40 TEMPO 2812/2818 VRB15G30KT 3000 TSRAGR BKN030CB

Decode

Destination Runways

ID Width Length Bearing (true) Bearing (mag) Surface Threshold Offset Overrun Length
12 148 ft / 45 m 4,909 ft / 1,496 m 115.13° 115.87° Asphalt 0 ft / 0 m 0 ft / 0 m
17 148 ft / 45 m 7,199 ft / 2,194 m 170.09° 170.83° Asphalt 0 ft / 0 m 0 ft / 0 m
30 148 ft / 45 m 4,909 ft / 1,496 m 295.14° 295.88° Asphalt 669 ft / 204 m 0 ft / 0 m
35 148 ft / 45 m 7,199 ft / 2,194 m 350.10° 350.84° Asphalt 0 ft / 0 m 0 ft / 0 m

Approach Navaids

Runway Type Ident Frequency Range Bearing (true) Bearing (mag) Slope Elevation
35 Localiser DR 110.75 MHz 27 nm / 50 km 350.08° 350.82° - 216 ft / 66 m (AMSL)
35 Glidescope DR 110.75 MHz 27 nm / 50 km 350.08° 350.82° 3.00° 216 ft / 66 m (AMSL)
35 DME DR 110.75 MHz 27 nm / 50 km - - - 216 ft / 66 m (AMSL)